Hlavní strana
METAR-TAF:

METAR-TAF

Letiště :

Vidalia Regional Airport

Vidalia, Georgie, Spojené státy americké

zeměpisná šířka: 32-11-33N, zeměpisná délka: 082-22-19W, výška: 84 m

Aktuální stav počasí

Zpráva byla vytvořena před 30 minutami, v 06:55 UTC
Bezvětří
Teplota 18°C
Vlhkost vzduchu 88%
Tlak 1020 hPa
Viditelnost: 8.0 km
Polojasno ve výšce 2800 ft
Oblačno až skoro zataženo ve výšce 7500 ft
Zataženo ve výšce 9500 ft
slabý déšť

METAR: KVDI 190655Z AUTO 00000KT 5SM -RA SCT028 BKN075 OVC095 18/16 A3011 RMK AO2

Čas: 02:25 (07:25 UTC)


TAF: chybějící

Stav a předpovědi počasí z více než 4 000 letišť (zprávy METAR a TAF).

Červené a žluté tečky na mapě představují dostupné meteorologické stanice.

Když kurzor umístíte na tečku, zobrazí se název stanice.

Pak kliknutím zobrazíte stav a předpověď počasí.

Chcete-li změnit mapu, kliknutím na zelené tlačítko se znaménkem +mapu přiblížíte, kliknutím na zelené tlačítko se znaménkem – mapu oddálíte a kliknutím na zelené šipky přejdete na sousední mapy.


METAR-TAF: